This is the latest recevied weather packets stored in our database for station/object AE6BH. If no packets are shown the sender has not sent any weather packets the latest 1 day(s).
| Time | Temp. | Humidity | Pressure | Rain* | Wind** | Luminosity | Snow |
|---|---|---|---|---|---|---|---|
| 1778033042 | 15° C | 60% | 1015.7 hPa | 0 mm | 1.34 m/s, 229° | 17 W/m² | - |
| 1778032739 | 15° C | 59% | 1015.6 hPa | 0 mm | 0 m/s | 20 W/m² | - |
| 1778032436 | 15° C | 58% | 1015.6 hPa | 0 mm | 1.79 m/s, 203° | 28 W/m² | - |
| 1778032133 | 15.56° C | 57% | 1015.6 hPa | 0 mm | 1.34 m/s, 187° | 28 W/m² | - |
| 1778031830 | 15.56° C | 56% | 1015.7 hPa | 0 mm | 0.45 m/s, 129° | 29 W/m² | - |
| 1778031526 | 15.56° C | 56% | 1015.5 hPa | 0 mm | 0.89 m/s, 284° | 32 W/m² | - |
| 1778031224 | 16.11° C | 55% | 1015.5 hPa | 0 mm | 0.89 m/s, 311° | 32 W/m² | - |
| 1778030920 | 16.11° C | 54% | 1015.6 hPa | 0 mm | 0.45 m/s, 340° | 47 W/m² | - |
| 1778030617 | 16.11° C | 53% | 1015.1 hPa | 0 mm | 0.89 m/s, 166° | 37 W/m² | - |
| 1778030315 | 16.67° C | 54% | 1015.1 hPa | 0 mm | 1.79 m/s, 216° | 42 W/m² | - |
| 1778030011 | 16.67° C | 54% | 1015.3 hPa | 0 mm | 0.89 m/s, 178° | 39 W/m² | - |
| 1778029709 | 17.22° C | 52% | 1015.3 hPa | 0 mm | 2.24 m/s, 63° | 45 W/m² | - |
| 1778029406 | 16.67° C | 53% | 1015.1 hPa | 0 mm | 0 m/s | 44 W/m² | - |
| 1778029103 | 16.67° C | 51% | 1015.1 hPa | 0 mm | 1.34 m/s, 176° | 69 W/m² | - |
| 1778028800 | 17.78° C | 52% | 1015.3 hPa | 0 mm | 0.45 m/s, 49° | 74 W/m² | - |
| 1778028496 | 17.22° C | 52% | 1015 hPa | 0 mm | 0.45 m/s, 22° | 78 W/m² | - |
| 1778028194 | 17.22° C | 54% | 1015.3 hPa | 0 mm | 1.34 m/s, 285° | 54 W/m² | - |
| 1778027889 | 17.22° C | 54% | 1015.1 hPa | 0 mm | 1.34 m/s, 219° | 49 W/m² | - |
| 1778027586 | 17.22° C | 52% | 1015.1 hPa | 0 mm | 0.45 m/s, 56° | 51 W/m² | - |
| 1778027282 | 16.67° C | 53% | 1015.1 hPa | 0 mm | 1.34 m/s, 336° | 79 W/m² | - |
| 1778026979 | 17.22° C | 53% | 1015.2 hPa | 0 mm | 1.79 m/s, 331° | 58 W/m² | - |
| 1778026674 | 17.22° C | 54% | 1015.1 hPa | 0 mm | 1.34 m/s, 40° | 60 W/m² | - |
| 1778026372 | 17.22° C | 53% | 1014.9 hPa | 0 mm | 1.34 m/s, 146° | 92 W/m² | - |
| 1778026069 | 17.78° C | 50% | 1015 hPa | 0 mm | 0.45 m/s, 120° | 51 W/m² | - |
| 1778025767 | 17.78° C | 51% | 1015 hPa | 0 mm | 1.34 m/s, 190° | 60 W/m² | - |
* Rain latest hour (hover to see other rain measurements)
** Current wind speed in m/s (hover to see current wind gust speed)